sat.trackr.live / text

‹ back to catalog

POLYTECH UNIVERSE-4

NORAD 61747 · 2024-199N

PAYLOAD ACTIVE UNKNOWN

§ Identity

Operator
Country
CIS
Launch date
2024-11-04
Launch site
VOSTO
Launch vehicle
Mass (kg)
RCS (m²)

External: N2YO · Heavens-Above · Gunter

§ Orbital elements

Epoch: 2026-05-25T04:33:21.211776Z

Period
93.22 min
Inclination
97.3038°
Eccentricity
0.0009206
Mean motion
15.44654046 rev/d
Perigee alt
426.1 km
Apogee alt
438.7 km
Semi-major
6,810.5 km
B*
3.9796e-4
RAAN
18.1975°
Arg perigee
16.1512°
Mean anomaly
344.0029°
Rev number
13,381

§ Raw data

POLYTECH UNIVERSE-41 61747U 24199N   26145.18982884  .00018502  00000+0  39796-3 0  99982 61747  97.3038  18.1975 0009206  16.1512 344.0029 15.44654046133818

JSON: /api/v1/satellites/61747 · /tle

For live sub-satellite position, see the globe view (requires WebGL).

§ Visibility from observer

Set your observer location to see the next 7 days of passes ≥ 10°. The values pass through the URL so the page stays shareable.

No JS? Fill the form by hand. The geolocation button needs JavaScript.